{"data":{"norad_id":48070,"intl_designator":"2021-025AE","name":"ONEWEB-0171","alt_names":[],"object_type":"PAYLOAD","status":"ACTIVE","operator":null,"country":"UK","launch_date":"2021-03-25","launch_site_code":"VOSTO","launch_vehicle":null,"mission":null,"orbit_class":"UNKNOWN","rcs_meters":null,"size_class":null,"mass_kg":null,"dimensions":null,"purposes":["comms"],"wikipedia_slug":null,"has_3d_model":false,"image_url":null,"decayed_at":null,"tle_current":{"epoch":"2026-09-20T02:06:35.984736Z","epoch_age_seconds":57621,"freshness":"FRESH","line1":"1 48070U 21025AE  26263.08791649  .00000252  00000+0  65631-3 0  9994","line2":"2 48070  87.8914 301.3454 0001848  91.0913 269.0428 13.13469193266074","mean_motion":13.13469193,"eccentricity":0.0001848,"inclination_deg":87.8914,"raan_deg":301.3454,"arg_perigee_deg":91.0913,"mean_anomaly_deg":269.0428,"bstar":0.00065631,"rev_number":26607,"period_min":109.63332887245,"perigee_km":1208.3662629843,"apogee_km":1211.1707528601,"semimajor_km":7587.9055079222,"source":"CELESTRAK","updated_at":"2026-09-20T09:00:44.590173Z"}}}